T 2004 June 30.4548 TT MPC q 1.103364 (2000.0) P Q z +0.017153 Peri. 60.4899 -0.2759515 -0.2670774 Node 275.5378 -0.7997238 +0.5966830 e 0.981074 Incl. 111.9286 +0.5331910 +0.7567292 >From 78 observations 2004 May 29-July 6.
m1 = 14.5 + 5 logΔ + 40 log r(t - 15) [ ,15] ( 〜2004年 7月15日) m1 = 15.7 + 5 logΔ + 10 log r [15, ] (2004年 7月15日〜 ) ※ 灰色の曲線は、m1 = 15.7 + 5 logΔ + 10 log r の光度曲線です。